This is the latest recevied weather packets stored in our database for station/object N5UKZ-WX. If no packets are shown the sender has not sent any weather packets the latest 10 day(s).
| Time | Temp. | Humidity | Pressure | Rain* | Wind** | Luminosity | Snow |
|---|---|---|---|---|---|---|---|
| 1777974732 | 16.11° C | 92% | 1012.2 hPa | 0 mm | - | - | - |
| 1777973900 | 16.11° C | 92% | 1012.2 hPa | 0 mm | - | - | - |
| 1777968430 | 16.67° C | 89% | 1012.2 hPa | 0 mm | - | - | - |
| 1777963929 | 16.67° C | 86% | 1012.6 hPa | 0 mm | - | - | - |
| 1777963029 | 17.22° C | 86% | 1012.9 hPa | 0 mm | - | - | - |
| 1777962129 | 16.67° C | 85% | 1012.9 hPa | 0 mm | - | - | - |
| 1777961260 | 16.67° C | 84% | 1012.9 hPa | 0 mm | - | - | - |
| 1777960329 | 16.67° C | 83% | 1013.2 hPa | 0 mm | - | - | - |
| 1777959429 | 17.22° C | 82% | 1013.6 hPa | 0 mm | - | - | - |
| 1777958528 | 17.78° C | 80% | 1013.6 hPa | 0 mm | - | - | - |
| 1777957628 | 17.78° C | 79% | 1013.6 hPa | 0 mm | - | - | - |
| 1777954958 | 18.33° C | 76% | 1013.2 hPa | 0 mm | - | - | - |
| 1777953127 | 19.44° C | 74% | 1013.6 hPa | 0 mm | - | - | - |
| 1777951327 | 18.89° C | 72% | 1013.6 hPa | 0 mm | - | - | - |
| 1777950438 | 18.89° C | 71% | 1013.6 hPa | 0 mm | - | - | - |
| 1777949526 | 18.89° C | 70% | 1013.6 hPa | 0 mm | - | - | - |
| 1777948626 | 19.44° C | 68% | 1013.2 hPa | 0 mm | - | - | - |
| 1777947726 | 20.56° C | 67% | 1013.6 hPa | 0 mm | - | - | - |
| 1777946826 | 20.56° C | 66% | 1013.6 hPa | 0 mm | - | - | - |
| 1777945025 | 20.56° C | 62% | 1013.2 hPa | 0 mm | - | - | - |
| 1777944125 | 21.67° C | 61% | 1012.9 hPa | 0 mm | - | - | - |
| 1777942325 | 22.78° C | 57% | 1012.9 hPa | 0 mm | - | - | - |
| 1777941424 | 23.33° C | 55% | 1012.6 hPa | 0 mm | - | - | - |
| 1777940524 | 23.89° C | 53% | 1012.9 hPa | 0 mm | - | - | - |
| 1777939624 | 24.44° C | 51% | 1012.9 hPa | 0 mm | - | - | - |
* Rain latest hour (hover to see other rain measurements)
** Current wind speed in m/s (hover to see current wind gust speed)